Regional Weather Roundup
Issued by NWS

Home | Current Version | Previous Version | Graphics & Text | Print | Product List | Glossary On
Versions: 1 2 3 4 5 6 7 8 9 10 11 12 13 14 15 16 17 18 19 20 21 22 23 24 25 26 27 28 29 30 31 32 33 34 35 36 37 38 39 40 41 42 43 44 45 46 47 48 49 50
000
ASUS43 KLMK 270310
RWRKY
KENTUCKY REGIONAL WEATHER ROUNDUP
NATIONAL WEATHER SERVICE LOUISVILLE KY
1100 PM EDT SUN APR 26 2015

NOTE "FAIR" INDICATES FEW OR NO CLOUDS BELOW 12,000 FEET
WITH NO SIGNIFICANT WEATHER AND/OR OBSTRUCTIONS TO VISIBILITY.

KYZ001>023-026-027-061>063-070>075-270400-
WESTERN AND SOUTH CENTRAL KENTUCKY

CITY           SKY/WX    TMP DP  RH WIND       PRES   REMARKS
PADUCAH        CLEAR     52  37  56 N7        29.95R
HENDERSON      CLEAR     54  37  54 N9        29.94R
OWENSBORO      CLEAR     55  38  52 N10       29.93R
HOPKINSVILLE   CLEAR     53  40  61 NW5       29.92R
BOWLING GREEN  CLEAR     54  35  48 N3        29.90R
GLASGOW        CLEAR     50  37  60 N5        29.90R
$$

KYZ024-025-028>034-038-045-046-053-270400-
NORTH CENTRAL KENTUCKY

CITY           SKY/WX    TMP DP  RH WIND       PRES   REMARKS
LOUISVILLE/SDF CLEAR     53  36  52 N8        29.92R
LOUISVILLE/LOU CLEAR     51  36  56 N5        29.93R
FORT KNOX      CLEAR     50  36  58 N6        29.90R
$$

KYZ035>037-039>044-047>052-055>060-089>105-270400-
NORTHEAST KENTUCKY

CITY           SKY/WX    TMP DP  RH WIND       PRES   REMARKS
LEXINGTON      CLEAR     48  36  63 N8        29.90R
COVINGTON      CLEAR     49  34  56 N5        29.90S
FRANKFORT      CLEAR     51  34  52 N5        29.90R
$$

KYZ054-064>069-076>088-106>120-270400-
SOUTHEAST KENTUCKY

CITY           SKY/WX    TMP DP  RH WIND       PRES   REMARKS
JACKSON        CLEAR     51  33  50 VRB5      29.85R
LONDON         CLEAR     50  35  56 CALM      29.86R
SOMERSET       CLEAR     45  41  87 CALM      29.89R
MIDDLESBORO    CLEAR     46  46  99 CALM      29.86S
MONTICELLO     CLEAR     46  44  93 CALM      29.90R
$$




USA.gov is the U.S. government's official web portal to all federal, state and local government web resources and services.